Wind_Speed
33 35 35 35 36 37 38 39 39 40 41 43 44 44 44 45 43 41 41 42 43 44 44 44 46 45 45 47 48 47 46 46 46 47 48 49 50 51 52 53 53 53 54 55 56 57 58 58 59 60 62 63 63 65 66 69 70 71 72 72 72 73 75 77 79 80 81 82 84 85 85 85 84 81 78 76 76 77 79 81 84 86 89 91 93 94
34 36 36 37 37 38 39 40 40 41 42 44 45 46 45 46 45 43 43 44 45 46 46 46 48 47 47 48 48 48 47 47 48 49 50 51 52 53 54 54 53 53 55 56 57 59 60 60 61 62 63 64 66 67 69 70 71 72 73 73 73 74 77 79 81 82 82 84 86 87 87 86 84 81 79 78 79 82 84 85 87 90 91 90 89 88
34 37 37 37 38 38 39 40 41 42 43 44 46 47 47 47 47 44 44 46 47 47 47 49 49 48 48 48 48 48 48 49 50 51 52 53 54 55 55 53 53 54 56 58 60 61 62 62 62 64 65 66 68 69 70 71 72 73 72 72 74 76 79 81 82 84 84 85 86 86 86 85 83 81 81 82 83 85 87 89 92 90 85 79 76 74
35 37 37 38 38 39 40 41 43 43 44 45 47 48 48 48 48 46 45 46 47 49 50 51 50 49 49 49 48 49 49 51 52 52 53 54 55 55 54 53 54 56 58 61 63 64 63 63 63 65 67 68 68 69 70 72 73 72 72 73 76 79 81 82 84 85 85 85 84 83 82 82 83 84 84 85 85 87 91 93 90 82 72 65 63 63
37 38 38 38 39 39 40 42 44 46 46 47 49 50 50 50 50 49 49 49 49 50 51 52 51 50 49 49 48 48 50 52 52 53 54 54 54 54 53 54 56 58 61 63 65 65 63 63 64 66 68 68 69 70 72 73 72 71 73 76 78 80 82 83 85 85 85 85 83 81 80 81 83 84 86 86 87 88 91 90 80 70 63 56 54 57
38 38 39 40 40 41 42 44 46 48 48 49 50 52 53 53 53 53 52 52 52 52 53 52 53 54 51 49 50 51 52 53 52 53 54 54 54 54 55 57 59 61 63 65 66 65 63 63 65 67 68 69 71 73 74 73 72 73 76 78 80 81 83 84 85 85 85 84 82 81 81 82 84 85 87 89 90 90 88 79 67 60 55 49 49 53
40 39 39 41 42 43 45 46 47 49 51 52 52 53 55 55 56 56 55 56 55 56 56 52 53 59 57 52 52 52 53 52 52 53 55 55 55 56 58 59 61 63 65 66 66 64 62 64 67 68 69 71 73 74 73 72 73 76 78 80 81 82 83 84 84 84 84 82 81 81 82 84 85 87 88 91 94 92 82 68 58 54 50 45 47 50
43 42 42 43 44 45 47 48 49 51 52 54 55 56 58 58 58 58 57 57 57 58 57 52 52 60 60 54 51 51 51 51 51 54 55 56 57 58 60 61 63 64 66 66 65 63 63 66 67 69 70 73 75 74 72 73 75 77 79 81 82 83 84 83 83 83 83 82 81 81 82 84 86 89 90 92 93 88 74 60 53 50 48 44 44 47
45 45 44 45 45 47 48 49 50 52 54 56 57 59 60 61 60 58 58 58 58 59 57 53 54 60 62 57 51 51 51 50 52 54 56 57 59 60 62 63 64 65 66 65 64 63 64 67 69 71 73 74 74 73 73 74 76 77 79 81 82 83 83 82 83 83 82 81 81 82 83 85 87 90 92 92 90 81 66 55 51 49 47 43 42 45
47 46 46 47 48 49 50 50 51 53 56 58 59 61 61 62 60 59 59 58 58 59 56 55 56 59 63 58 52 53 52 52 53 55 57 60 61 63 64 65 66 67 66 65 64 64 66 69 71 72 74 74 73 72 73 75 76 77 78 80 80 80 81 82 83 82 81 81 82 83 85 87 89 91 92 91 83 70 60 54 50 50 48 44 41 43
49 48 48 48 50 52 52 52 53 55 57 59 60 62 62 63 61 60 60 59 60 59 56 56 56 59 63 58 54 56 54 54 56 58 61 63 64 66 67 68 69 69 67 65 64 65 68 71 72 73 73 73 73 72 73 74 76 77 78 78 77 78 81 82 82 81 80 80 82 84 86 88 90 91 92 88 75 61 55 53 52 53 52 46 42 42
50 50 50 50 52 54 55 55 55 57 59 60 62 63 64 64 63 62 62 62 63 62 58 58 57 60 62 58 57 59 58 58 60 62 64 65 66 69 69 70 71 69 67 66 65 66 69 72 72 73 73 72 73 72 73 74 75 76 76 76 76 78 81 82 82 81 79 80 82 84 86 88 90 91 91 85 70 56 53 54 55 56 55 48 43 42
52 51 50 51 53 54 55 56 57 59 60 61 63 65 66 66 65 66 66 65 66 64 62 61 60 62 62 60 61 62 61 61 62 64 66 66 68 70 71 72 71 68 67 66 65 67 70 72 72 72 72 72 72 72 73 74 75 75 75 75 77 79 81 82 82 80 79 79 81 83 86 89 90 90 89 82 66 55 54 55 55 55 54 50 44 42
55 54 52 53 55 55 56 57 59 61 62 63 64 66 67 68 68 68 68 68 67 65 63 63 63 64 64 63 64 64 62 61 63 64 65 67 69 71 72 72 70 67 67 66 66 69 71 72 72 72 72 72 72 72 73 74 74 73 74 76 78 79 81 82 81 79 78 79 81 83 86 89 90 90 87 79 65 57 56 56 55 55 54 52 47 44
59 59 57 57 57 58 58 59 61 63 64 65 66 67 69 69 69 68 68 68 68 65 64 63 64 65 65 66 66 63 61 62 63 63 64 67 70 71 72 71 68 67 66 65 67 70 72 72 72 72 71 71 72 73 73 73 72 73 75 77 78 80 81 81 80 78 78 79 80 83 86 88 89 89 86 76 64 58 57 57 55 56 55 53 50 47
60 61 60 60 59 60 60 61 63 64 65 67 67 69 70 71 70 69 69 69 68 68 66 64 65 66 65 67 66 62 62 63 62 61 64 68 70 71 71 69 68 67 65 65 68 71 73 72 72 72 71 71 72 73 72 72 72 74 76 78 80 81 81 81 79 78 79 79 80 82 86 88 88 88 83 71 62 58 57 57 56 56 55 52 50 48
61 62 62 62 61 61 62 63 64 65 65 67 68 69 72 73 72 69 70 70 69 69 68 66 67 67 67 68 65 64 65 63 61 62 66 69 69 70 70 68 67 66 65 66 70 73 73 72 72 72 71 72 73 72 71 71 73 76 78 79 81 81 81 80 77 78 80 80 80 82 86 89 89 88 81 67 59 58 56 55 56 57 54 50 49 48
61 63 63 63 63 63 64 65 66 66 66 67 69 70 73 74 72 70 71 71 70 71 71 69 68 67 68 69 67 67 66 62 61 65 68 68 68 70 69 67 67 66 65 67 71 74 73 72 72 71 71 72 72 71 70 71 74 76 79 81 82 82 80 78 77 77 79 79 81 83 86 89 89 88 79 63 57 57 56 54 56 56 52 49 48 46
63 65 65 65 65 65 66 66 66 67 67 68 70 72 73 74 71 70 72 72 70 71 73 72 68 67 69 70 69 68 66 63 64 68 69 69 69 70 68 67 66 65 66 68 72 74 72 71 71 70 71 71 71 70 70 72 74 77 80 81 82 81 79 78 78 79 79 79 82 85 88 90 90 87 76 60 54 57 56 54 55 54 50 48 47 44
64 67 67 67 68 68 68 68 68 68 68 70 72 73 74 73 71 70 73 73 70 70 74 74 71 69 70 69 67 66 64 64 67 69 69 69 69 69 68 66 65 64 66 70 72 73 71 70 70 70 71 70 69 70 71 72 75 77 79 80 80 80 78 77 79 80 80 80 83 85 88 90 89 86 74 57 53 56 56 54 54 52 49 47 45 41
66 68 70 70 70 71 70 70 71 69 69 71 73 74 74 72 71 72 75 74 71 71 74 75 75 75 72 68 66 64 62 64 68 69 68 69 70 69 67 66 65 65 67 70 72 72 70 69 70 70 70 69 68 69 71 73 76 78 79 80 80 79 78 77 79 80 79 81 83 86 89 89 88 84 71 56 52 55 55 53 52 50 48 46 42 39
67 70 72 72 72 72 72 72 73 72 72 73 74 75 73 70 71 74 76 76 72 73 75 76 78 78 73 69 67 63 62 65 67 67 67 69 69 66 65 64 65 66 68 70 71 70 69 69 70 70 68 67 67 69 71 74 76 78 79 79 80 79 78 79 80 80 80 81 84 87 89 89 87 80 67 54 51 53 53 51 50 48 45 44 40 37
69 71 74 74 74 74 74 75 75 74 74 74 75 74 71 70 71 74 77 75 72 76 77 76 79 78 72 70 68 63 64 66 66 65 66 67 65 64 64 63 64 66 68 69 69 68 68 70 70 68 66 66 67 69 72 74 76 78 78 79 79 78 78 80 80 80 81 82 84 87 89 89 86 76 62 52 50 50 49 48 49 48 43 42 39 35
70 73 75 76 76 76 75 76 76 75 75 75 74 72 69 69 72 74 76 73 74 77 74 73 79 77 71 71 69 65 66 65 64 64 65 65 64 62 62 62 63 66 66 67 68 68 69 70 68 65 65 66 67 69 72 74 76 77 78 78 78 78 78 80 80 80 82 83 85 88 89 89 85 72 57 51 50 49 47 45 47 47 42 40 38 34
71 73 75 77 78 78 77 77 77 76 76 75 72 69 68 70 73 75 73 73 76 73 68 74 81 74 70 72 70 65 65 64 62 64 64 64 63 60 60 61 62 64 65 66 67 67 68 68 65 64 65 66 67 69 71 73 75 77 77 77 77 78 79 80 80 81 82 84 86 88 89 88 82 67 53 49 49 49 46 43 44 46 41 38 37 33
73 74 75 77 78 78 79 78 77 76 75 73 69 67 68 71 74 74 71 73 76 68 65 76 79 72 71 73 68 63 63 62 62 63 63 61 59 58 59 61 62 64 65 66 67 67 68 66 63 64 66 67 68 70 72 74 75 76 77 77 77 79 79 80 80 81 83 84 86 88 89 87 79 63 50 48 49 48 45 41 42 44 41 37 35 32
74 75 76 77 78 79 79 78 77 75 70 66 64 65 69 73 74 72 71 73 70 66 70 76 74 72 74 71 65 61 60 61 62 62 60 58 57 58 59 61 63 64 66 67 67 67 66 63 62 64 66 67 68 71 73 74 75 76 76 76 77 79 80 80 81 82 83 85 87 89 89 86 76 59 48 47 49 49 46 41 40 42 41 37 34 32
76 77 77 78 80 80 79 77 76 72 65 61 62 67 72 74 72 69 70 68 64 67 75 73 68 74 76 67 60 59 59 61 60 59 59 58 59 59 60 62 64 66 67 67 67 67 64 61 61 64 65 66 68 70 73 74 75 76 76 76 77 79 80 81 81 82 83 85 88 90 89 85 71 55 48 47 48 49 47 42 41 41 40 38 35 31
78 80 79 80 82 80 76 74 71 67 64 62 64 70 73 71 67 65 66 64 62 70 77 71 68 75 73 61 55 56 59 59 57 57 58 58 59 60 61 63 65 67 68 68 67 66 63 61 62 63 65 66 68 70 72 74 74 75 75 76 77 79 80 81 82 83 84 85 89 90 88 83 67 50 47 49 49 50 47 42 42 42 40 37 35 31
81 82 80 82 83 77 71 69 65 64 66 65 65 70 70 65 62 63 64 63 64 71 74 69 71 72 63 53 53 57 58 57 56 57 57 57 58 60 62 65 67 68 69 68 67 65 62 62 63 64 65 66 68 70 72 73 74 74 75 76 77 78 79 81 82 83 84 86 89 89 87 81 63 48 47 50 49 49 47 43 42 43 40 35 35 33
83 83 80 81 82 74 64 62 63 64 66 65 65 68 65 60 61 63 63 62 65 70 69 67 71 67 53 49 55 55 55 56 57 57 56 57 59 60 63 66 68 69 69 67 66 64 62 63 64 65 66 67 69 71 72 73 73 74 75 76 77 78 79 82 83 84 85 88 89 88 86 78 59 46 47 51 50 49 46 43 42 44 42 34 32 33
80 81 78 78 79 70 58 60 64 63 63 64 63 62 59 59 61 62 61 62 64 66 65 64 66 59 49 50 54 53 53 56 56 56 56 57 59 62 65 68 69 70 68 67 66 63 63 63 64 65 66 68 70 71 72 73 73 74 75 76 77 78 80 81 83 84 86 88 89 87 85 76 57 46 48 51 50 49 45 42 42 44 43 35 30 32
75 76 73 73 74 68 59 61 62 61 64 64 60 57 58 60 62 61 60 61 61 61 62 61 58 53 50 51 52 52 53 53 53 55 57 59 61 64 67 69 70 69 68 67 65 63 63 64 65 66 67 68 70 71 73 73 73 75 76 77 77 78 80 81 83 85 86 88 88 86 83 74 56 47 50 51 50 48 44 41 42 44 43 35 29 30
69 69 68 67 69 66 61 61 62 63 65 63 59 59 61 61 61 60 59 58 57 58 59 56 52 50 51 51 51 52 52 51 52 55 58 61 64 66 68 70 70 69 67 66 65 64 64 64 65 66 67 69 71 72 73 73 74 75 76 77 78 79 81 82 83 85 86 87 87 84 81 71 55 47 50 51 49 47 43 40 41 44 43 34 29 30
66 65 64 64 65 64 61 60 64 66 64 62 64 62 59 59 59 59 59 57 53 53 54 52 50 49 49 50 51 51 51 52 55 57 59 62 65 67 70 70 69 68 67 65 64 64 64 64 65 66 67 70 71 72 72 72 73 75 76 77 78 79 81 83 84 85 85 86 85 82 78 68 54 48 50 50 48 45 41 39 40 43 42 34 29 29
65 63 64 64 63 62 61 62 67 68 65 64 63 58 54 57 59 57 57 54 49 49 51 50 47 47 49 50 51 51 53 55 57 59 61 64 66 68 70 70 69 68 66 65 64 64 64 64 66 66 68 70 71 71 71 72 73 74 75 77 78 79 81 83 84 85 84 84 83 78 74 65 52 48 50 49 47 43 39 38 38 41 41 33 28 29
64 62 61 60 60 60 63 65 67 68 65 59 56 53 54 57 55 51 52 50 46 45 47 47 46 47 50 51 52 54 56 57 58 60 63 65 67 69 70 70 69 67 65 65 64 63 64 65 66 67 68 70 71 71 71 72 73 74 75 77 78 79 81 83 84 84 83 83 80 75 70 62 52 49 50 48 45 41 37 36 37 38 39 33 27 27
60 58 56 57 59 60 62 63 63 64 62 57 54 55 57 56 52 49 51 48 43 42 45 47 48 50 52 54 55 57 57 58 59 62 64 66 67 69 70 70 68 65 64 64 63 63 64 65 66 67 68 70 70 71 71 71 73 74 75 76 78 79 82 83 84 83 82 81 77 71 66 60 52 50 51 48 43 38 35 35 35 37 37 31 26 25
58 57 55 56 59 59 60 62 63 64 62 58 56 56 54 53 50 49 49 46 42 43 47 50 52 55 56 57 58 58 58 59 61 63 65 67 68 69 70 68 65 64 64 63 63 63 64 65 66 67 68 70 70 70 70 71 72 74 75 76 79 80 82 83 83 82 80 78 73 67 62 58 53 52 51 48 41 35 33 33 34 35 35 29 23 21
56 56 56 57 59 59 61 64 65 63 61 58 56 53 52 50 48 46 46 45 45 47 51 54 57 59 59 59 58 58 59 60 62 63 66 67 68 69 68 65 63 63 63 63 62 62 63 64 65 67 68 69 70 70 70 70 71 73 75 77 79 81 83 83 82 80 78 75 69 62 59 57 54 52 52 47 39 32 31 32 32 33 34 28 21 18
56 56 57 58 59 60 62 64 65 62 58 55 53 51 50 49 46 44 45 48 50 53 56 59 61 62 61 59 58 58 60 61 62 64 66 67 68 67 65 63 62 61 61 61 61 62 63 64 65 67 68 69 69 69 69 69 70 72 75 78 80 82 82 82 80 78 76 71 64 57 56 56 54 52 52 47 37 30 30 30 30 31 32 26 20 16
55 55 56 58 59 61 62 65 67 63 55 52 53 53 52 50 47 46 48 51 54 58 61 62 62 61 60 59 58 59 61 62 63 65 66 67 67 65 63 61 60 60 59 59 60 61 62 63 65 66 68 69 69 69 68 69 70 72 76 79 80 81 81 80 78 75 72 67 59 53 53 55 54 53 52 44 34 28 28 28 27 29 30 26 19 15
55 56 58 57 58 61 63 65 67 64 57 54 57 56 52 50 49 50 53 55 57 61 63 63 61 59 58 58 59 60 61 62 64 65 66 66 65 63 61 59 58 58 58 58 59 60 61 62 64 65 67 68 68 68 68 69 71 73 76 79 80 81 80 78 75 72 68 62 54 50 51 53 53 53 50 40 30 26 26 24 24 25 26 24 19 15
55 56 57 56 56 59 62 63 64 63 60 59 56 51 48 49 51 53 56 58 61 63 64 63 60 57 56 57 59 60 61 63 64 64 65 65 63 60 58 57 57 57 57 57 57 58 59 61 62 64 66 67 67 67 68 70 72 75 77 79 80 79 78 76 73 69 65 57 49 46 49 52 53 52 46 36 27 24 23 21 20 21 22 22 19 15
54 55 57 56 56 57 59 61 62 61 59 56 50 46 47 51 53 56 59 62 64 65 64 61 57 55 56 58 58 59 61 63 64 64 64 63 60 58 57 56 56 56 55 56 56 57 58 59 61 63 65 66 66 67 69 71 74 75 77 78 79 78 76 73 70 66 61 52 45 44 46 50 53 52 45 33 25 22 21 19 18 18 19 19 17 13
53 54 55 54 54 56 56 56 60 61 57 52 47 46 51 55 57 60 63 65 65 65 63 58 55 55 57 57 57 59 61 62 63 63 62 60 58 57 55 55 55 54 54 54 55 56 57 58 59 61 63 64 65 67 69 73 75 76 77 78 77 76 75 71 67 63 57 48 42 41 44 47 51 52 44 32 25 22 19 17 16 16 17 16 14 12
55 56 57 55 54 56 55 55 58 59 54 49 47 50 56 61 64 66 66 66 66 65 60 56 55 57 57 57 58 60 61 61 61 61 60 58 56 55 54 53 53 52 53 53 53 54 55 57 58 59 61 63 64 67 70 73 75 77 77 77 76 74 72 68 63 59 52 44 39 39 42 45 49 51 43 31 25 21 18 15 14 13 14 14 12 10
65 67 66 62 59 61 61 61 61 59 55 53 55 60 66 70 71 70 68 67 66 63 58 55 56 57 57 58 59 59 60 60 60 59 57 55 54 53 52 51 51 51 51 51 52 53 54 55 57 58 60 62 65 68 71 73 75 76 76 75 74 72 69 64 60 55 48 41 37 37 40 43 47 49 43 32 24 20 15 13 13 12 11 12 11 9
72 72 70 68 68 70 70 67 64 63 62 64 67 71 74 75 75 73 70 68 65 60 56 56 57 57 57 58 58 59 59 59 58 56 54 53 52 51 50 49 49 49 50 50 51 52 53 54 56 57 60 63 65 69 71 73 74 75 75 74 72 69 65 61 56 51 45 38 35 35 37 41 44 47 43 33 25 19 14 10 10 11 10 9 9 9
71 68 67 70 75 75 71 68 67 67 67 69 71 74 76 77 75 72 69 66 62 58 56 57 57 57 57 58 58 58 58 56 55 53 52 50 49 48 47 47 47 48 48 49 50 51 52 54 55 58 61 64 66 69 71 72 73 73 74 73 71 66 62 57 52 47 42 36 33 33 34 38 42 45 42 33 23 19 16 10 8 9 10 9 9 9
69 67 70 76 77 74 72 71 71 70 69 71 73 75 77 76 73 69 66 63 60 57 57 58 57 56 57 57 57 56 55 54 52 51 49 47 46 45 45 45 46 46 47 48 49 50 51 53 55 58 61 64 67 69 70 71 72 72 72 71 68 63 58 54 49 44 39 34 31 30 32 36 39 42 41 33 22 18 16 12 9 8 9 10 10 7
Wind_Direction
317 316 319 320 322 324 325 326 327 329 331 332 333 332 330 327 324 323 319 316 314 313 314 314 311 313 315 314 315 318 319 318 318 317 316 316 315 313 312 312 312 312 311 311 310 309 308 307 306 305 305 305 306 308 309 309 309 309 309 309 309 308 306 304 304 304 303 303 301 300 300 299 298 297 296 295 293 293 293 293 292 291 289 287 285 282
317 315 317 319 321 323 324 325 326 328 330 331 331 331 330 328 324 323 320 317 315 314 316 315 313 316 317 316 317 318 318 318 318 316 316 316 314 312 311 312 313 313 312 311 310 309 308 308 307 306 306 308 309 310 310 309 309 309 309 310 309 306 304 304 304 304 303 302 302 301 301 300 300 299 298 297 297 298 299 298 297 295 294 290 286 282
316 314 316 318 320 322 324 325 325 327 329 330 330 329 330 328 325 323 321 317 316 316 317 315 314 316 316 315 316 317 318 318 317 317 318 316 313 312 311 313 314 313 313 312 311 310 310 309 308 308 309 311 310 310 309 309 309 309 310 309 308 305 305 305 305 304 303 303 302 302 302 301 301 300 301 302 304 304 304 303 302 300 296 290 284 279
314 313 314 316 318 321 323 323 323 324 327 329 328 327 328 327 324 323 321 319 317 318 317 314 314 316 315 314 316 317 318 317 317 319 318 316 313 312 313 314 315 315 314 313 312 312 312 311 310 310 311 311 310 309 309 310 310 311 310 308 307 306 306 306 305 305 304 304 303 303 303 302 303 304 305 307 308 308 307 307 305 302 296 289 280 274
313 312 314 314 316 318 319 320 321 322 324 326 326 326 326 325 323 322 320 318 317 317 315 314 314 313 311 312 315 316 316 316 318 319 318 317 316 315 315 315 316 317 315 313 313 313 313 311 310 310 311 310 310 311 311 312 311 310 309 307 307 307 307 306 306 305 305 304 303 303 302 302 304 306 308 309 309 309 310 309 306 302 298 287 273 267
311 312 313 313 314 316 316 318 319 320 321 323 324 324 324 323 321 320 318 316 315 315 313 315 315 311 310 314 315 316 316 317 319 320 320 320 319 318 317 317 318 317 314 313 313 313 312 310 310 310 310 311 312 313 313 313 311 310 308 307 307 307 307 306 306 305 304 304 304 304 304 305 307 309 310 311 312 313 313 310 306 304 301 285 267 263
311 311 312 311 313 313 314 315 317 317 318 319 321 322 321 321 320 319 316 314 315 314 314 319 316 311 312 316 316 317 316 317 319 321 321 321 320 319 319 319 318 316 314 314 314 313 312 310 309 310 311 313 313 314 314 312 310 309 308 308 308 308 307 306 306 305 305 305 305 306 308 310 312 313 314 315 315 316 315 311 308 307 303 286 268 264
310 311 312 311 311 312 312 313 314 315 316 317 320 320 321 321 320 319 316 315 315 313 315 320 315 309 311 314 317 317 315 317 321 322 322 322 321 320 319 319 317 314 314 314 314 312 310 309 310 311 313 314 314 314 312 311 309 309 308 309 309 308 307 307 307 307 306 306 307 310 312 313 315 316 317 317 318 317 315 312 309 308 304 291 274 267
310 311 311 310 311 310 310 311 312 314 315 317 319 320 321 320 320 319 316 315 314 311 314 316 312 309 309 313 318 316 314 319 322 322 322 322 321 320 320 318 316 314 314 314 313 311 310 310 311 313 314 314 313 312 310 309 308 308 309 309 309 308 308 307 307 307 307 308 311 313 314 315 317 317 318 320 319 316 314 312 310 309 306 295 279 271
309 310 311 311 311 309 310 311 313 314 315 317 318 319 319 319 318 317 315 315 313 310 313 312 309 307 307 312 316 314 315 320 321 322 323 322 321 322 320 317 316 315 315 313 312 311 311 311 312 314 314 313 311 310 309 308 308 309 309 309 308 307 307 307 307 307 308 310 313 315 316 317 318 319 320 321 318 314 312 312 310 308 308 299 283 272
308 309 310 311 310 309 310 312 313 313 314 316 317 317 318 318 317 315 314 315 312 311 313 309 307 306 306 311 314 313 317 320 320 322 322 321 322 322 320 317 317 316 315 313 312 311 311 311 312 313 312 311 309 308 308 308 308 309 308 308 307 307 307 307 307 308 309 312 315 316 317 318 320 320 321 321 317 311 309 309 307 304 304 300 286 273
305 308 309 309 308 308 309 310 312 312 313 315 316 317 318 317 317 314 314 316 314 314 314 309 307 306 308 313 314 314 319 321 321 322 320 320 322 321 318 317 317 316 314 312 312 311 310 311 312 312 310 309 307 307 308 308 308 308 308 307 308 308 308 308 308 309 311 314 317 318 318 320 321 321 322 321 315 308 306 306 304 300 298 296 287 275
303 305 307 307 306 306 308 310 311 312 314 315 316 318 318 318 318 315 316 318 315 315 314 310 309 308 311 315 314 316 321 323 323 322 319 320 321 318 317 316 316 315 313 313 312 310 309 310 311 310 309 307 307 307 308 309 309 308 308 308 308 309 308 308 309 310 313 316 318 318 319 321 322 323 323 320 312 304 303 305 304 302 297 291 284 277
303 304 306 306 305 306 308 310 311 312 314 314 316 317 319 320 319 316 316 316 315 314 312 311 311 311 314 316 315 318 324 325 323 320 319 320 318 316 315 315 315 314 313 313 311 309 309 310 310 309 308 307 307 308 309 310 309 309 309 309 309 309 309 309 310 312 315 318 319 319 321 322 323 324 323 319 310 301 302 305 306 305 299 290 281 273
304 306 307 307 307 308 309 310 311 312 313 314 315 317 318 319 317 315 315 314 313 311 310 312 311 312 315 315 316 322 326 325 322 319 319 319 315 314 314 314 314 313 313 312 310 309 309 310 310 308 308 308 308 310 310 310 310 310 310 310 310 310 310 310 311 313 316 318 319 320 322 324 324 324 323 317 308 302 303 306 307 306 301 290 278 269
303 305 306 306 307 308 309 310 310 312 313 313 314 315 317 317 315 315 313 312 311 309 310 312 311 312 314 314 318 325 326 323 319 318 318 316 313 312 313 314 314 313 313 312 310 308 309 310 310 309 309 309 310 311 310 310 310 310 311 310 311 310 310 311 313 315 317 318 319 321 323 324 324 324 322 314 306 305 307 307 308 307 301 290 278 267
302 303 304 305 306 307 308 308 309 311 311 311 312 313 315 315 315 314 312 311 310 308 311 312 310 312 314 313 319 325 323 320 317 317 316 313 311 311 313 314 313 312 312 311 309 308 309 311 309 309 309 310 310 310 310 311 311 311 311 311 311 311 311 313 314 316 318 318 320 322 324 325 325 325 322 313 305 307 309 309 309 307 301 291 281 267
301 302 302 303 305 305 306 307 308 309 309 309 310 312 313 314 314 313 311 310 309 308 311 311 310 312 312 314 321 323 321 318 316 316 314 311 310 311 312 313 312 312 312 310 308 308 310 310 309 309 310 310 310 310 310 311 311 312 312 311 312 312 313 314 315 316 317 318 320 323 325 325 325 325 322 312 306 310 312 311 310 308 301 292 285 268
302 301 300 301 303 303 304 306 308 307 307 308 309 310 312 314 313 312 310 310 310 310 311 311 311 312 312 316 322 322 319 317 315 315 313 310 310 311 311 311 311 312 311 309 307 308 310 309 308 308 309 309 309 309 311 311 312 312 311 312 312 313 314 315 316 317 318 319 322 324 326 326 326 326 322 312 307 312 313 311 310 308 302 295 288 269
301 301 300 300 302 303 304 306 306 306 307 308 308 309 311 313 312 310 309 309 310 311 310 310 312 312 313 317 320 319 317 315 314 314 311 309 310 310 311 311 311 311 310 307 307 308 309 308 307 308 308 308 309 310 311 312 312 312 311 312 313 313 314 315 316 318 318 320 323 325 326 326 326 325 321 312 309 313 313 311 311 308 304 300 291 267
301 301 300 300 301 302 304 304 304 304 305 306 307 308 310 312 311 309 309 308 309 310 309 310 311 311 313 317 319 317 314 313 314 312 309 309 310 311 311 311 311 311 308 307 306 307 308 307 306 307 307 308 309 310 311 312 312 312 312 313 313 313 314 315 316 317 319 321 324 326 327 327 327 325 319 312 312 315 314 312 312 309 305 303 294 265
300 300 299 299 300 301 302 302 302 303 305 306 306 307 309 311 309 308 306 306 309 309 307 310 310 308 313 319 319 316 313 313 312 308 307 309 310 310 311 310 310 309 306 306 306 306 306 305 305 306 306 307 309 310 312 312 312 312 313 313 313 314 315 316 317 318 319 322 325 326 327 328 328 325 317 311 314 317 316 312 312 311 306 305 296 264
298 298 298 298 299 300 300 301 302 303 305 305 305 306 308 308 308 306 303 305 309 307 307 311 308 307 315 319 316 314 313 312 309 306 306 308 308 309 309 308 308 306 305 305 305 306 305 304 305 305 305 307 309 311 312 312 313 313 313 313 313 315 315 316 317 318 320 323 325 327 328 328 329 324 314 311 316 318 316 312 312 311 306 306 298 264
296 296 297 298 297 298 299 300 302 303 304 303 304 305 305 307 308 303 301 306 307 306 311 311 305 310 319 316 313 314 313 309 306 305 306 306 307 308 307 306 306 304 304 304 305 305 304 304 304 304 306 308 309 311 312 313 313 313 313 314 314 314 315 316 318 319 321 324 326 328 328 329 329 323 313 312 318 320 317 312 312 311 306 305 300 267
295 296 297 297 297 298 300 301 302 303 303 303 304 304 304 306 306 302 302 304 304 309 313 306 305 315 317 311 312 314 310 306 304 304 306 306 306 307 306 305 304 303 304 304 304 304 304 303 304 304 306 308 310 312 313 313 313 313 313 314 314 314 315 316 318 320 322 324 326 328 329 330 329 322 312 314 320 321 318 312 311 310 305 303 301 274
294 294 294 295 295 297 300 301 301 301 301 302 302 302 302 303 302 300 300 301 303 309 308 303 308 315 312 310 313 311 305 304 303 304 306 305 305 306 305 305 304 304 304 304 304 304 303 303 303 304 306 309 311 312 313 313 313 313 314 314 313 314 315 317 318 320 322 325 327 329 329 330 329 321 312 317 321 321 318 313 311 310 304 299 299 281
291 291 292 293 294 296 299 300 299 299 299 300 300 300 301 301 300 298 297 299 304 305 302 305 311 311 309 311 311 307 303 302 302 304 305 305 306 306 305 305 304 304 304 304 303 302 302 302 302 305 308 310 312 313 313 314 314 314 314 313 313 315 316 317 319 321 323 326 328 329 330 331 329 320 313 318 322 322 319 313 311 311 304 295 294 284
290 290 292 293 293 296 298 298 298 299 299 299 300 301 300 299 298 297 296 300 304 300 300 307 310 306 310 313 308 303 301 301 304 305 305 306 307 306 306 305 304 304 303 303 302 302 301 301 302 305 308 310 312 313 314 314 314 314 314 314 314 315 316 318 320 322 324 327 328 329 330 332 329 319 315 321 323 322 319 313 310 312 306 293 288 285
289 291 293 293 293 296 298 298 298 297 296 298 301 300 298 298 298 298 297 300 301 297 300 307 305 305 313 314 305 300 300 302 306 305 305 307 306 306 305 304 303 303 302 302 302 301 300 300 302 305 308 310 312 314 314 314 314 314 313 314 314 316 317 319 321 323 325 327 329 329 331 332 329 319 317 323 324 322 319 313 309 312 309 294 283 283
290 292 294 294 294 296 297 296 295 295 295 298 300 297 296 298 300 299 298 299 298 298 302 305 302 307 316 311 300 299 301 303 304 304 306 307 306 305 304 303 302 302 301 301 301 301 300 300 303 306 309 311 313 314 314 314 313 313 313 314 315 316 318 320 322 324 326 328 329 329 331 333 329 320 319 323 323 322 319 313 309 312 312 299 282 279
291 292 294 295 294 295 296 293 293 295 296 297 296 296 298 301 300 298 298 299 300 300 302 301 303 310 314 302 298 302 302 302 303 306 308 307 305 304 303 302 302 300 301 301 300 299 299 301 305 308 310 313 314 314 314 314 314 313 313 314 316 318 320 321 323 325 327 328 329 329 331 333 329 321 321 323 323 323 320 313 311 313 314 303 283 277
292 294 296 296 295 295 293 291 293 296 295 293 296 301 302 300 297 296 297 299 300 299 299 300 304 309 306 298 300 302 300 301 305 307 307 306 304 303 302 302 301 300 300 300 299 299 300 302 305 308 310 313 314 314 314 314 314 314 314 315 317 319 321 322 324 326 327 328 329 329 331 333 329 322 322 324 324 324 320 312 312 316 315 306 288 278
293 295 296 296 294 294 292 292 295 295 292 294 300 303 299 297 297 297 298 299 299 297 297 301 305 306 302 300 301 301 302 306 308 306 304 303 302 302 302 301 300 300 300 299 299 300 300 303 306 309 311 313 314 315 315 314 314 315 315 317 319 320 322 323 325 326 328 328 328 329 331 332 330 323 323 325 324 323 319 312 314 318 316 308 292 281
294 295 295 294 293 293 293 295 295 292 292 298 302 300 298 298 298 297 298 300 299 296 297 300 304 303 300 299 301 303 306 308 305 303 302 301 301 302 301 300 300 299 299 300 300 300 301 304 307 309 311 313 315 315 315 315 315 316 317 318 320 322 323 324 325 327 328 328 328 329 330 332 329 324 324 325 325 323 317 312 316 319 318 310 296 287
293 293 293 293 293 293 294 294 293 292 295 299 300 299 299 298 297 298 299 300 299 296 297 300 303 302 299 300 305 308 308 305 303 302 302 301 301 301 300 300 300 299 300 301 301 301 303 305 308 310 311 313 314 315 315 315 316 317 318 319 321 322 323 324 326 328 328 328 328 328 330 331 328 324 324 325 325 321 314 312 317 320 319 312 297 290
291 291 291 291 291 292 292 292 292 293 296 298 300 302 301 298 299 299 298 299 299 298 298 300 300 300 301 306 309 309 306 304 303 302 301 301 301 301 301 300 300 300 301 301 302 303 304 305 308 309 311 313 314 315 315 316 316 318 319 320 321 323 324 325 327 328 328 328 328 328 329 330 327 324 325 326 325 320 312 312 318 321 319 312 298 293
289 289 291 291 290 290 291 292 293 294 297 299 301 302 300 300 299 295 294 299 302 299 298 299 300 304 308 310 310 307 305 304 303 301 300 301 301 302 301 300 300 300 301 303 303 303 304 306 308 310 312 313 314 315 316 316 317 319 319 320 322 323 324 325 327 328 328 328 328 328 328 328 327 324 326 327 325 318 311 313 319 321 318 310 297 294
288 288 289 289 288 289 292 294 295 296 299 302 301 300 299 298 296 292 293 299 302 298 296 300 305 311 312 310 309 306 304 303 301 300 300 301 302 302 301 301 301 301 302 303 304 304 306 307 309 311 313 314 314 315 317 318 319 319 320 321 322 323 324 326 327 328 328 328 328 327 327 327 327 325 326 328 325 317 311 314 320 322 319 309 296 295
286 286 287 287 288 291 293 294 295 297 300 303 303 301 298 295 293 292 294 299 300 298 300 307 312 313 311 310 309 306 303 302 301 300 301 302 302 302 302 301 301 301 302 303 304 305 307 308 310 311 313 313 314 316 317 319 319 320 321 321 322 324 325 326 328 328 328 329 328 326 326 326 326 325 327 329 325 315 311 316 321 323 321 309 294 294
283 284 286 287 290 293 293 293 295 297 300 302 302 300 296 293 293 294 295 299 300 301 308 314 315 313 312 311 309 305 302 301 300 300 300 301 302 302 301 300 300 301 302 303 304 305 307 308 310 311 312 313 315 316 318 319 320 320 321 322 322 324 325 327 328 328 328 329 327 326 325 324 325 326 328 330 325 314 311 318 321 324 322 311 294 290
283 285 286 288 290 291 293 294 295 296 300 303 301 298 294 292 291 292 296 300 304 309 314 316 315 314 313 310 307 303 301 300 300 300 300 301 302 301 300 299 299 301 302 303 305 306 307 309 310 311 313 313 315 317 319 320 320 320 321 322 323 324 325 327 329 329 329 329 326 324 324 323 324 328 331 331 325 313 313 319 322 324 324 314 295 285
285 286 286 288 290 292 294 295 294 295 300 301 298 296 294 290 289 291 296 302 307 313 316 316 315 313 311 308 304 300 299 300 299 299 300 301 301 300 299 298 299 300 302 303 304 306 307 309 310 312 313 314 315 318 319 320 320 320 321 322 323 324 326 327 329 329 329 328 325 323 323 322 325 331 332 329 322 313 314 319 322 325 327 319 301 281
284 286 287 289 291 293 293 293 292 295 298 296 294 296 293 288 288 293 298 304 310 314 316 315 314 312 309 305 301 298 299 299 299 299 300 300 300 299 298 298 299 301 302 303 305 306 308 310 311 312 313 314 316 318 319 320 320 321 322 322 323 324 326 328 329 329 329 327 324 322 322 322 327 333 332 327 321 315 314 318 322 327 330 326 312 287
284 286 288 289 290 291 291 291 291 293 296 295 295 295 290 286 290 296 301 307 311 314 315 314 312 309 305 300 298 298 299 298 298 299 300 299 299 298 297 298 299 301 302 303 305 307 308 310 312 312 313 315 317 318 319 319 320 321 322 323 323 325 327 328 329 329 329 326 322 321 323 324 329 334 333 326 321 317 313 314 321 327 330 331 326 302
285 286 287 288 289 290 291 293 294 295 295 295 294 292 290 291 295 300 304 307 310 313 313 312 309 305 300 298 298 299 298 298 298 299 298 298 297 296 297 298 299 300 302 304 305 307 309 310 312 313 314 315 317 319 319 319 321 322 322 323 324 325 327 328 329 329 328 324 320 320 324 327 331 336 335 327 321 318 311 308 316 325 328 330 335 325
289 290 289 289 290 291 293 297 300 297 293 292 292 293 296 299 301 303 305 307 309 312 312 308 304 300 298 299 299 298 297 297 297 297 296 296 295 295 297 298 299 300 302 304 306 308 310 311 312 313 315 316 318 319 319 320 321 322 323 323 324 325 327 328 329 329 327 323 319 320 325 328 333 338 338 328 320 318 311 302 309 323 324 322 331 343
292 293 291 289 290 292 295 300 303 299 293 291 293 297 300 303 304 304 304 307 309 311 309 304 299 298 298 299 298 298 297 297 296 295 295 294 294 295 297 298 299 301 302 305 307 309 310 312 313 314 315 317 318 319 319 320 322 322 323 324 324 325 327 328 329 329 326 321 318 320 326 330 334 339 341 331 317 315 312 301 304 318 321 316 317 332
289 289 288 288 290 292 294 298 302 300 295 292 294 298 301 302 302 302 304 307 309 308 304 299 297 297 298 298 297 297 296 295 294 294 293 293 294 295 297 298 299 301 303 306 308 309 311 312 313 314 316 317 318 318 319 321 322 322 323 324 325 326 327 327 329 329 325 320 318 321 328 333 336 340 344 336 319 313 311 303 303 312 317 319 318 313
289 287 287 288 289 290 292 295 298 297 295 294 296 298 299 300 300 301 303 306 307 303 298 296 296 297 297 297 297 296 294 293 293 292 291 293 294 295 296 298 299 302 305 307 309 310 311 312 313 315 316 317 318 319 320 321 323 323 324 325 325 325 326 327 328 328 324 319 317 321 328 335 337 341 345 341 325 315 313 306 305 306 307 317 325 316
288 288 288 289 288 289 291 294 296 296 295 296 297 297 298 299 299 300 303 305 302 298 295 295 296 296 297 296 296 295 293 292 291 290 291 293 294 295 296 298 301 304 306 308 309 310 311 313 314 315 316 317 318 320 321 322 323 324 325 325 325 325 326 327 328 327 322 317 315 319 327 335 339 343 346 342 328 317 316 311 298 296 298 306 317 317
285 286 289 290 289 288 289 293 295 295 295 296 296 297 297 298 297 299 301 301 297 294 294 296 296 296 296 296 295 293 291 290 289 290 291 292 293 295 297 300 302 305 306 308 309 311 312 313 315 316 317 318 319 321 322 323 324 325 326 325 324 324 325 326 327 326 321 316 314 318 326 334 341 345 347 344 331 317 313 304 287 284 291 299 306 307
Height
5829 5827 5825 5824 5821 5819 5816 5814 5812 5809 5807 5805 5804 5802 5800 5797 5796 5795 5792 5789 5786 5783 5782 5780 5776 5775 5773 5768 5765 5763 5762 5760 5758 5755 5753 5751 5748 5744 5741 5738 5736 5734 5730 5727 5724 5720 5718 5715 5713 5709 5705 5700 5696 5692 5688 5683 5679 5674 5670 5665 5661 5656 5650 5646 5642 5639 5634 5628 5623 5620 5616 5612 5609 5606 5602 5601 5597 5591 5588 5585 5580 5575 5570 5565 5559 5555
5826 5823 5822 5820 5818 5816 5813 5810 5808 5806 5805 5802 5800 5798 5796 5793 5791 5791 5788 5784 5781 5778 5777 5774 5770 5769 5767 5762 5760 5759 5757 5755 5753 5750 5748 5746 5742 5739 5735 5733 5731 5727 5723 5720 5716 5713 5710 5708 5705 5701 5696 5692 5688 5684 5679 5675 5671 5666 5661 5656 5652 5647 5641 5635 5630 5626 5622 5616 5609 5605 5601 5597 5594 5592 5587 5585 5583 5577 5572 5567 5561 5555 5548 5541 5535 5530
5822 5819 5818 5816 5814 5812 5809 5806 5804 5803 5801 5799 5797 5794 5793 5790 5787 5786 5784 5779 5776 5773 5771 5767 5764 5764 5762 5758 5756 5754 5753 5750 5748 5746 5743 5740 5737 5733 5730 5727 5724 5721 5717 5713 5709 5706 5703 5701 5696 5692 5688 5684 5680 5676 5672 5667 5662 5657 5652 5648 5643 5637 5631 5624 5618 5613 5609 5605 5599 5593 5588 5582 5578 5577 5574 5570 5567 5561 5554 5548 5540 5532 5525 5518 5512 5508
5819 5816 5814 5812 5810 5808 5805 5802 5800 5799 5798 5796 5794 5791 5789 5787 5783 5781 5778 5774 5770 5767 5765 5761 5759 5759 5756 5753 5752 5750 5748 5745 5743 5741 5738 5735 5731 5727 5723 5721 5717 5713 5710 5706 5702 5699 5696 5693 5688 5683 5679 5676 5673 5669 5665 5660 5654 5649 5644 5640 5634 5628 5621 5614 5608 5602 5597 5593 5588 5583 5577 5571 5565 5562 5559 5556 5554 5546 5537 5530 5521 5512 5505 5500 5496 5493
5814 5812 5810 5808 5806 5804 5802 5799 5796 5794 5793 5792 5790 5787 5784 5782 5779 5776 5773 5769 5766 5764 5760 5756 5754 5753 5751 5749 5748 5747 5743 5740 5738 5735 5732 5728 5724 5720 5717 5714 5710 5707 5702 5698 5695 5692 5689 5685 5680 5676 5672 5668 5664 5660 5656 5651 5645 5641 5636 5630 5625 5618 5611 5605 5598 5591 5586 5582 5577 5573 5569 5564 5558 5554 5548 5543 5541 5535 5524 5514 5506 5497 5491 5487 5484 5482
5810 5808 5806 5804 5802 5800 5798 5795 5792 5789 5788 5787 5785 5783 5780 5778 5775 5772 5768 5764 5762 5759 5755 5753 5748 5744 5745 5746 5743 5740 5737 5733 5731 5728 5724 5721 5717 5714 5710 5707 5704 5700 5696 5692 5688 5685 5682 5677 5672 5668 5665 5661 5656 5651 5646 5641 5636 5631 5625 5620 5614 5608 5602 5595 5589 5581 5575 5570 5565 5560 5555 5551 5547 5544 5539 5529 5523 5519 5511 5501 5493 5487 5481 5477 5475 5474
5806 5804 5803 5800 5798 5796 5793 5791 5788 5785 5783 5782 5781 5779 5776 5773 5770 5766 5763 5759 5756 5752 5748 5749 5742 5734 5736 5740 5737 5733 5730 5727 5724 5721 5718 5714 5710 5707 5704 5701 5698 5694 5689 5685 5682 5679 5674 5669 5664 5661 5657 5652 5648 5643 5638 5632 5627 5621 5615 5609 5604 5599 5593 5585 5579 5572 5565 5560 5555 5550 5543 5538 5531 5527 5524 5516 5507 5501 5495 5488 5482 5477 5473 5469 5467 5466
5800 5799 5798 5795 5794 5791 5788 5786 5784 5781 5779 5776 5775 5773 5769 5767 5763 5760 5757 5753 5750 5746 5744 5744 5737 5728 5729 5733 5732 5727 5723 5721 5718 5714 5711 5707 5703 5700 5698 5695 5691 5686 5682 5678 5674 5671 5666 5661 5656 5652 5648 5643 5638 5634 5629 5624 5618 5613 5606 5600 5594 5588 5583 5576 5569 5562 5554 5547 5544 5540 5534 5529 5522 5514 5509 5503 5495 5487 5482 5477 5472 5468 5465 5462 5460 5459
5795 5794 5793 5790 5789 5786 5784 5782 5780 5777 5773 5771 5769 5766 5763 5760 5757 5754 5750 5748 5744 5740 5740 5740 5732 5723 5721 5725 5726 5721 5717 5715 5712 5708 5704 5700 5696 5693 5691 5687 5682 5677 5674 5670 5667 5662 5658 5652 5648 5644 5639 5635 5629 5625 5621 5616 5610 5605 5599 5593 5586 5580 5574 5568 5561 5553 5546 5538 5532 5528 5522 5517 5512 5504 5497 5490 5483 5476 5471 5468 5464 5460 5458 5455 5453 5452
5789 5789 5787 5785 5784 5781 5779 5777 5775 5772 5768 5766 5764 5760 5758 5755 5752 5749 5744 5742 5739 5735 5736 5733 5727 5720 5716 5719 5719 5713 5711 5710 5705 5701 5697 5693 5689 5686 5683 5678 5673 5670 5666 5663 5659 5654 5648 5643 5639 5636 5632 5627 5622 5618 5613 5608 5603 5598 5593 5587 5580 5573 5566 5560 5553 5546 5539 5531 5524 5518 5512 5506 5500 5494 5487 5480 5472 5466 5461 5459 5456 5452 5451 5448 5446 5445
5784 5784 5782 5781 5778 5775 5773 5771 5769 5767 5763 5761 5759 5755 5753 5749 5747 5743 5739 5738 5732 5729 5730 5726 5721 5715 5710 5714 5712 5706 5705 5704 5698 5694 5690 5685 5682 5679 5674 5669 5665 5662 5658 5655 5650 5645 5640 5635 5632 5628 5624 5619 5615 5611 5606 5601 5597 5591 5586 5581 5575 5567 5559 5553 5545 5538 5532 5524 5517 5510 5503 5496 5490 5483 5476 5469 5462 5457 5453 5450 5448 5445 5443 5441 5439 5437
5779 5779 5778 5776 5774 5770 5768 5766 5764 5761 5759 5756 5753 5749 5747 5744 5741 5736 5733 5732 5725 5722 5722 5718 5714 5709 5704 5706 5704 5699 5699 5696 5691 5686 5681 5677 5675 5670 5665 5661 5658 5654 5651 5647 5643 5638 5633 5628 5625 5621 5616 5612 5608 5604 5600 5595 5590 5584 5578 5573 5568 5561 5553 5545 5538 5531 5525 5517 5510 5503 5495 5488 5481 5473 5465 5458 5452 5448 5445 5442 5439 5436 5434 5433 5431 5430
5775 5775 5774 5772 5770 5767 5764 5762 5759 5755 5753 5750 5747 5743 5740 5736 5733 5727 5723 5722 5717 5714 5712 5709 5706 5702 5699 5699 5695 5692 5693 5689 5684 5679 5673 5669 5666 5662 5657 5653 5651 5647 5643 5640 5635 5631 5626 5621 5618 5614 5609 5605 5601 5597 5593 5588 5582 5577 5571 5564 5559 5553 5545 5537 5530 5524 5518 5511 5504 5496 5488 5480 5472 5464 5456 5448 5443 5440 5437 5434 5431 5427 5425 5424 5423 5421
5767 5767 5768 5767 5763 5761 5759 5757 5753 5749 5746 5743 5740 5737 5734 5730 5725 5720 5717 5713 5710 5708 5705 5702 5698 5693 5692 5691 5687 5686 5686 5682 5678 5672 5667 5664 5658 5653 5650 5647 5644 5640 5636 5633 5628 5623 5618 5615 5611 5607 5602 5597 5593 5589 5584 5579 5574 5568 5563 5557 5551 5545 5537 5529 5522 5516 5511 5505 5497 5489 5480 5472 5463 5455 5447 5439 5434 5431 5428 5425 5421 5418 5415 5413 5413 5412
5758 5758 5759 5758 5756 5753 5752 5750 5746 5744 5740 5736 5734 5730 5728 5726 5720 5716 5713 5707 5704 5702 5700 5698 5693 5687 5687 5683 5680 5681 5678 5674 5670 5665 5661 5657 5651 5646 5643 5640 5636 5633 5630 5626 5621 5615 5610 5607 5603 5598 5594 5589 5585 5581 5576 5571 5565 5560 5554 5548 5542 5536 5529 5521 5514 5509 5504 5498 5491 5482 5473 5465 5455 5446 5438 5431 5425 5422 5419 5415 5412 5408 5404 5401 5401 5401
5753 5752 5752 5750 5749 5747 5745 5743 5740 5738 5734 5730 5728 5725 5723 5720 5715 5711 5706 5701 5697 5694 5694 5693 5686 5682 5681 5676 5674 5675 5672 5667 5661 5657 5655 5649 5643 5639 5635 5633 5629 5625 5622 5618 5612 5607 5603 5599 5595 5590 5586 5581 5576 5572 5567 5562 5556 5550 5545 5540 5534 5527 5520 5513 5506 5500 5495 5490 5484 5476 5466 5457 5449 5440 5431 5423 5417 5412 5409 5405 5401 5398 5393 5390 5389 5389
5749 5747 5746 5744 5744 5741 5739 5737 5735 5733 5729 5724 5723 5720 5717 5714 5710 5704 5698 5695 5690 5684 5686 5687 5680 5677 5674 5670 5671 5670 5666 5661 5655 5651 5648 5641 5635 5632 5628 5626 5623 5618 5615 5611 5605 5599 5596 5592 5587 5582 5578 5573 5569 5564 5560 5554 5547 5541 5535 5530 5525 5519 5513 5506 5500 5494 5487 5481 5476 5469 5460 5450 5441 5432 5423 5415 5409 5404 5400 5396 5391 5387 5383 5379 5377 5378
5743 5742 5741 5739 5737 5736 5733 5731 5729 5727 5724 5720 5718 5715 5711 5707 5704 5698 5690 5687 5683 5676 5676 5677 5674 5671 5666 5663 5665 5664 5658 5654 5649 5644 5640 5633 5628 5625 5622 5620 5616 5613 5609 5604 5598 5592 5589 5585 5579 5575 5570 5566 5561 5557 5553 5547 5541 5533 5526 5520 5514 5508 5503 5497 5493 5488 5481 5473 5467 5460 5452 5442 5432 5423 5414 5407 5401 5395 5391 5387 5381 5376 5373 5369 5366 5367
5736 5734 5735 5733 5731 5729 5727 5726 5724 5720 5717 5715 5711 5709 5706 5701 5698 5693 5684 5679 5676 5670 5666 5666 5668 5666 5660 5658 5659 5656 5650 5645 5641 5638 5632 5626 5622 5618 5616 5614 5610 5607 5603 5597 5591 5586 5582 5578 5573 5568 5564 5559 5554 5549 5545 5540 5533 5527 5519 5512 5506 5499 5494 5488 5482 5478 5473 5466 5458 5451 5442 5432 5422 5413 5405 5399 5393 5386 5381 5377 5372 5367 5363 5360 5357 5356
5729 5725 5726 5726 5723 5721 5721 5719 5716 5713 5710 5708 5704 5701 5698 5695 5691 5687 5679 5673 5670 5667 5659 5656 5658 5658 5655 5657 5655 5649 5644 5638 5634 5631 5624 5619 5617 5614 5611 5608 5604 5601 5596 5589 5583 5579 5576 5571 5566 5562 5557 5552 5548 5542 5537 5532 5526 5519 5512 5505 5499 5493 5487 5481 5474 5468 5463 5457 5449 5442 5433 5423 5412 5403 5395 5390 5385 5379 5373 5368 5363 5359 5354 5350 5347 5346
5721 5717 5717 5718 5716 5714 5714 5712 5709 5707 5705 5702 5699 5694 5691 5689 5684 5678 5674 5668 5665 5662 5654 5649 5648 5645 5646 5651 5649 5643 5639 5634 5628 5623 5617 5613 5610 5607 5604 5600 5597 5593 5587 5581 5577 5572 5569 5565 5560 5555 5550 5545 5541 5536 5530 5524 5517 5511 5504 5498 5492 5485 5479 5474 5469 5462 5456 5449 5441 5433 5424 5415 5404 5394 5386 5382 5377 5371 5364 5359 5355 5350 5346 5342 5338 5337
5714 5710 5708 5709 5708 5707 5707 5704 5701 5700 5699 5695 5691 5688 5686 5683 5678 5671 5665 5663 5662 5655 5649 5646 5639 5635 5639 5641 5639 5635 5631 5628 5622 5614 5610 5607 5603 5600 5597 5592 5589 5585 5579 5574 5570 5566 5563 5558 5553 5548 5544 5539 5534 5529 5523 5517 5510 5503 5497 5490 5484 5477 5470 5465 5460 5454 5448 5442 5434 5425 5416 5406 5396 5386 5378 5374 5369 5363 5357 5351 5347 5343 5338 5334 5331 5330
5707 5703 5700 5700 5701 5700 5699 5697 5694 5693 5692 5688 5683 5681 5679 5675 5672 5666 5656 5657 5658 5649 5645 5642 5629 5627 5636 5633 5628 5628 5623 5618 5613 5606 5602 5600 5597 5594 5590 5587 5583 5577 5573 5568 5563 5560 5556 5551 5546 5541 5537 5533 5528 5522 5517 5510 5503 5496 5489 5483 5476 5471 5464 5457 5452 5446 5439 5433 5426 5417 5407 5398 5388 5378 5371 5366 5362 5356 5350 5345 5340 5336 5332 5328 5324 5323
5700 5696 5692 5691 5692 5693 5692 5689 5688 5687 5684 5680 5677 5675 5672 5668 5666 5659 5651 5650 5649 5644 5642 5633 5619 5624 5631 5623 5619 5621 5617 5610 5604 5599 5596 5592 5590 5589 5584 5581 5577 5571 5566 5561 5557 5554 5548 5543 5538 5534 5530 5526 5521 5516 5510 5503 5497 5489 5483 5475 5469 5464 5458 5451 5445 5438 5431 5425 5418 5410 5400 5390 5380 5370 5363 5358 5354 5349 5344 5339 5334 5329 5325 5322 5318 5318
5693 5689 5686 5681 5680 5683 5685 5683 5681 5678 5674 5670 5669 5667 5663 5661 5657 5650 5647 5643 5638 5640 5640 5622 5613 5624 5624 5613 5615 5615 5607 5603 5598 5594 5592 5587 5583 5582 5578 5574 5570 5564 5560 5555 5550 5546 5540 5535 5531 5526 5522 5518 5514 5509 5503 5497 5490 5483 5477 5469 5462 5457 5451 5444 5437 5431 5424 5417 5410 5402 5392 5382 5372 5363 5356 5351 5346 5341 5337 5333 5328 5323 5319 5317 5314 5312
5686 5684 5681 5676 5672 5673 5675 5676 5674 5671 5667 5664 5662 5660 5656 5654 5649 5644 5643 5636 5630 5635 5634 5616 5611 5620 5615 5606 5610 5609 5598 5594 5591 5587 5586 5583 5578 5575 5571 5567 5563 5558 5553 5548 5544 5539 5534 5529 5524 5519 5515 5511 5506 5501 5496 5490 5484 5477 5471 5463 5455 5449 5443 5438 5431 5424 5417 5409 5401 5393 5384 5374 5364 5355 5349 5343 5338 5334 5330 5326 5323 5318 5313 5311 5309 5307
5677 5676 5676 5672 5668 5668 5668 5667 5665 5663 5662 5659 5656 5654 5649 5645 5642 5640 5635 5630 5626 5624 5622 5618 5612 5610 5609 5604 5601 5598 5592 5587 5584 5581 5578 5575 5572 5568 5564 5560 5555 5550 5545 5541 5537 5532 5527 5523 5518 5512 5508 5503 5498 5493 5488 5482 5476 5470 5464 5457 5450 5443 5436 5430 5423 5416 5409 5400 5391 5383 5375 5366 5356 5347 5342 5336 5331 5326 5323 5320 5317 5312 5307 5304 5303 5302
5667 5668 5670 5665 5660 5662 5663 5658 5655 5652 5652 5652 5649 5645 5641 5636 5635 5633 5625 5623 5623 5610 5607 5618 5612 5598 5601 5604 5595 5588 5584 5580 5578 5574 5569 5566 5563 5560 5556 5552 5547 5542 5537 5533 5529 5524 5520 5517 5512 5507 5502 5497 5492 5487 5481 5475 5469 5463 5456 5449 5443 5435 5428 5422 5415 5408 5401 5392 5383 5374 5366 5358 5348 5340 5334 5329 5324 5319 5315 5312 5310 5307 5302 5298 5296 5296
5657 5657 5663 5657 5650 5655 5656 5649 5647 5644 5641 5643 5641 5635 5631 5629 5627 5624 5618 5617 5615 5601 5597 5609 5605 5594 5596 5597 5588 5581 5576 5574 5572 5567 5562 5560 5556 5553 5550 5544 5539 5534 5529 5526 5521 5516 5513 5509 5505 5501 5496 5491 5487 5481 5476 5470 5463 5457 5450 5443 5437 5429 5421 5414 5407 5399 5392 5384 5375 5366 5358 5350 5341 5334 5327 5321 5317 5312 5308 5305 5303 5300 5296 5291 5289 5289
5647 5647 5653 5647 5640 5645 5647 5640 5638 5635 5631 5634 5634 5626 5623 5625 5621 5615 5611 5610 5604 5594 5593 5596 5592 5593 5597 5588 5578 5575 5570 5567 5565 5561 5558 5555 5551 5548 5543 5537 5532 5527 5522 5519 5514 5509 5505 5500 5496 5493 5488 5484 5480 5474 5470 5464 5457 5451 5444 5437 5431 5423 5414 5406 5399 5391 5383 5375 5366 5357 5349 5342 5334 5327 5321 5315 5310 5305 5301 5298 5296 5293 5290 5285 5282 5282
5639 5637 5642 5637 5629 5634 5639 5632 5628 5627 5624 5625 5625 5620 5617 5619 5615 5607 5603 5602 5595 5588 5588 5586 5580 5587 5592 5580 5571 5570 5566 5560 5557 5554 5552 5549 5545 5540 5535 5529 5525 5519 5515 5511 5507 5502 5498 5493 5489 5485 5480 5476 5472 5467 5462 5457 5450 5443 5436 5430 5423 5415 5407 5398 5390 5383 5374 5365 5357 5348 5340 5334 5327 5321 5315 5309 5303 5298 5294 5291 5288 5285 5282 5278 5276 5274
5632 5629 5631 5627 5618 5622 5629 5624 5619 5619 5616 5615 5619 5617 5612 5609 5605 5601 5598 5595 5588 5580 5579 5578 5574 5578 5580 5572 5566 5565 5560 5555 5551 5548 5545 5542 5537 5533 5527 5522 5517 5512 5508 5504 5500 5496 5491 5486 5482 5478 5473 5469 5465 5460 5454 5449 5443 5436 5429 5423 5416 5408 5400 5391 5382 5374 5366 5357 5348 5340 5333 5326 5320 5314 5308 5302 5296 5291 5287 5284 5281 5278 5274 5271 5268 5267
5627 5622 5621 5618 5609 5611 5618 5615 5611 5610 5606 5607 5613 5612 5604 5599 5595 5593 5591 5589 5582 5573 5569 5570 5570 5570 5568 5563 5561 5558 5553 5551 5547 5542 5538 5534 5530 5525 5520 5515 5510 5506 5502 5497 5493 5489 5484 5480 5475 5470 5466 5462 5457 5452 5446 5440 5435 5428 5420 5414 5408 5400 5392 5384 5376 5366 5358 5349 5339 5331 5324 5318 5312 5307 5301 5295 5290 5285 5281 5278 5274 5270 5266 5263 5261 5260
5619 5615 5612 5609 5602 5601 5606 5606 5600 5598 5597 5600 5604 5602 5595 5591 5586 5582 5582 5582 5577 5567 5562 5563 5564 5563 5558 5555 5553 5550 5547 5544 5540 5536 5532 5527 5522 5517 5512 5508 5503 5499 5495 5490 5485 5481 5477 5473 5468 5463 5458 5453 5448 5444 5439 5432 5426 5419 5412 5405 5399 5391 5383 5376 5368 5359 5350 5341 5331 5323 5316 5311 5305 5300 5295 5289 5283 5278 5275 5271 5268 5264 5259 5256 5254 5252
5610 5607 5602 5600 5595 5592 5596 5595 5587 5585 5591 5594 5592 5591 5588 5582 5577 5573 5574 5575 5571 5562 5557 5556 5557 5555 5550 5547 5546 5543 5540 5536 5531 5528 5524 5519 5514 5509 5503 5500 5496 5492 5488 5484 5479 5474 5470 5466 5462 5457 5452 5446 5441 5437 5432 5425 5419 5413 5405 5398 5391 5385 5376 5368 5360 5352 5343 5334 5324 5316 5309 5304 5300 5294 5288 5283 5277 5272 5269 5265 5262 5257 5252 5249 5247 5245
5603 5599 5595 5592 5589 5585 5585 5584 5576 5575 5585 5589 5584 5580 5578 5573 5568 5564 5564 5568 5567 5558 5552 5550 5549 5548 5544 5541 5539 5536 5532 5528 5523 5519 5516 5511 5506 5501 5496 5492 5488 5484 5480 5476 5472 5467 5463 5458 5455 5451 5446 5440 5435 5431 5425 5419 5413 5406 5399 5391 5385 5378 5369 5361 5353 5344 5336 5327 5318 5310 5303 5298 5294 5288 5283 5277 5271 5267 5264 5260 5256 5251 5246 5243 5241 5238
5595 5592 5589 5584 5581 5579 5575 5572 5568 5566 5575 5583 5581 5573 5568 5564 5561 5555 5554 5561 5563 5554 5547 5544 5542 5541 5538 5534 5532 5528 5523 5519 5515 5511 5508 5503 5498 5494 5489 5485 5481 5477 5473 5468 5464 5460 5456 5451 5447 5443 5439 5433 5428 5423 5418 5412 5405 5399 5392 5385 5378 5371 5363 5354 5346 5337 5329 5320 5311 5304 5297 5292 5288 5282 5277 5271 5266 5262 5258 5255 5251 5246 5241 5238 5235 5232
5587 5584 5583 5576 5573 5572 5568 5563 5561 5559 5563 5573 5573 5566 5560 5557 5553 5548 5547 5553 5556 5549 5542 5539 5537 5535 5531 5527 5524 5519 5515 5512 5508 5503 5499 5495 5491 5487 5482 5478 5474 5469 5465 5461 5457 5452 5448 5444 5439 5434 5431 5426 5420 5416 5410 5404 5397 5391 5385 5378 5371 5364 5357 5348 5340 5331 5322 5314 5305 5297 5291 5286 5281 5276 5271 5265 5260 5256 5253 5250 5246 5242 5237 5233 5230 5227
5580 5576 5574 5569 5566 5566 5562 5556 5554 5553 5557 5563 5561 5556 5552 5549 5546 5542 5540 5544 5547 5542 5537 5535 5531 5528 5524 5520 5515 5511 5507 5504 5500 5495 5491 5487 5483 5479 5475 5471 5467 5463 5458 5454 5450 5446 5441 5436 5431 5427 5423 5418 5414 5409 5403 5397 5390 5383 5377 5371 5364 5357 5350 5341 5333 5324 5315 5307 5299 5291 5285 5281 5276 5271 5265 5259 5255 5252 5249 5246 5242 5237 5232 5228 5226 5224
5573 5569 5566 5562 5561 5559 5554 5549 5548 5549 5553 5555 5551 5547 5544 5541 5539 5537 5533 5535 5536 5533 5531 5529 5524 5520 5517 5512 5507 5503 5499 5497 5493 5488 5484 5480 5476 5472 5468 5464 5460 5456 5452 5447 5444 5439 5434 5430 5425 5420 5416 5411 5407 5402 5397 5391 5384 5376 5370 5364 5357 5349 5342 5334 5326 5318 5308 5300 5293 5286 5280 5275 5271 5266 5259 5254 5250 5247 5244 5242 5238 5233 5229 5225 5222 5220
5565 5561 5558 5556 5554 5552 5547 5542 5540 5544 5550 5548 5541 5539 5537 5533 5532 5531 5528 5527 5526 5524 5523 5521 5515 5512 5508 5504 5500 5495 5491 5489 5485 5480 5476 5473 5469 5466 5462 5458 5454 5450 5446 5441 5437 5433 5427 5423 5418 5413 5409 5404 5399 5395 5391 5385 5378 5371 5364 5357 5350 5343 5336 5328 5320 5311 5303 5295 5288 5282 5276 5270 5266 5260 5254 5249 5246 5243 5240 5237 5234 5230 5226 5222 5219 5217
5557 5553 5550 5550 5547 5544 5541 5536 5530 5536 5547 5543 5532 5531 5530 5526 5524 5524 5522 5521 5519 5516 5514 5511 5508 5504 5499 5495 5492 5487 5483 5481 5476 5472 5468 5465 5462 5459 5455 5451 5448 5444 5441 5436 5432 5427 5421 5416 5411 5406 5402 5397 5392 5388 5384 5378 5372 5366 5358 5351 5344 5337 5330 5322 5314 5306 5298 5290 5284 5278 5273 5267 5262 5256 5249 5245 5242 5240 5237 5233 5230 5227 5223 5219 5216 5215
5550 5545 5542 5544 5542 5536 5534 5531 5525 5527 5536 5535 5527 5525 5522 5517 5516 5516 5514 5513 5512 5509 5506 5503 5500 5497 5492 5488 5484 5479 5476 5473 5468 5464 5461 5458 5455 5452 5448 5444 5441 5437 5434 5430 5425 5421 5415 5409 5404 5399 5395 5391 5386 5381 5376 5371 5365 5359 5352 5345 5337 5330 5323 5316 5308 5301 5293 5286 5280 5275 5270 5264 5258 5252 5245 5241 5239 5236 5234 5231 5228 5224 5221 5218 5215 5213
5542 5540 5535 5535 5535 5530 5525 5524 5522 5522 5525 5523 5520 5518 5514 5510 5510 5509 5506 5505 5504 5501 5498 5495 5492 5489 5485 5481 5476 5472 5468 5464 5460 5457 5454 5450 5448 5445 5441 5437 5434 5430 5427 5423 5419 5414 5409 5404 5399 5393 5388 5385 5380 5374 5369 5364 5359 5352 5346 5338 5331 5324 5318 5311 5303 5296 5289 5282 5277 5273 5267 5261 5255 5249 5242 5238 5235 5233 5231 5229 5226 5223 5220 5217 5214 5212
5534 5533 5528 5526 5525 5522 5519 5517 5516 5516 5516 5513 5511 5510 5506 5503 5504 5502 5499 5497 5496 5493 5491 5487 5483 5481 5477 5473 5469 5465 5461 5457 5453 5450 5447 5444 5441 5438 5434 5431 5427 5423 5420 5417 5413 5408 5404 5399 5394 5388 5383 5378 5374 5368 5362 5357 5352 5346 5339 5332 5325 5318 5312 5306 5299 5292 5285 5279 5274 5270 5265 5259 5252 5246 5238 5234 5232 5231 5228 5226 5224 5221 5219 5217 5213 5211
5527 5524 5519 5517 5515 5512 5513 5513 5510 5506 5506 5506 5503 5501 5498 5496 5496 5495 5492 5489 5487 5485 5482 5479 5475 5472 5468 5465 5463 5459 5454 5450 5447 5443 5440 5438 5434 5431 5428 5425 5421 5417 5414 5410 5406 5402 5398 5393 5388 5383 5378 5372 5368 5363 5356 5350 5345 5340 5333 5326 5319 5312 5306 5300 5294 5288 5281 5275 5271 5267 5262 5257 5251 5244 5236 5231 5229 5228 5226 5224 5222 5219 5217 5216 5213 5211
5523 5517 5510 5509 5507 5503 5505 5508 5504 5498 5497 5498 5496 5494 5492 5488 5486 5486 5485 5482 5479 5476 5474 5471 5467 5463 5461 5458 5455 5451 5447 5443 5440 5436 5434 5431 5428 5425 5422 5418 5415 5411 5407 5404 5400 5396 5392 5388 5383 5378 5373 5368 5363 5357 5351 5345 5339 5332 5326 5320 5313 5306 5300 5294 5288 5283 5277 5272 5268 5264 5259 5254 5248 5241 5234 5229 5226 5225 5224 5222 5220 5218 5216 5214 5213 5211
5516 5511 5504 5502 5501 5497 5497 5500 5498 5493 5491 5490 5488 5487 5485 5481 5477 5476 5476 5474 5471 5468 5465 5463 5459 5456 5453 5450 5447 5444 5440 5436 5433 5431 5427 5424 5421 5418 5415 5412 5408 5405 5401 5398 5395 5391 5387 5382 5378 5373 5368 5363 5358 5352 5346 5340 5333 5326 5320 5313 5306 5300 5295 5288 5283 5278 5273 5268 5265 5261 5257 5252 5246 5239 5232 5227 5224 5223 5222 5220 5218 5216 5215 5213 5212 5211
5505 5502 5500 5497 5491 5490 5493 5493 5489 5485 5484 5483 5481 5479 5477 5473 5469 5468 5467 5465 5462 5460 5457 5454 5451 5449 5446 5443 5439 5436 5433 5429 5427 5424 5421 5418 5415 5412 5409 5406 5402 5398 5395 5392 5388 5385 5381 5377 5372 5368 5363 5358 5353 5347 5341 5334 5328 5320 5314 5307 5300 5295 5290 5284 5279 5274 5269 5265 5262 5258 5255 5250 5244 5237 5231 5226 5223 5221 5220 5218 5216 5215 5214 5212 5211 5211
5497 5495 5494 5489 5482 5481 5486 5485 5479 5475 5475 5475 5473 5469 5467 5465 5463 5460 5459 5456 5453 5450 5448 5445 5443 5441 5438 5435 5432 5429 5426 5423 5420 5418 5415 5412 5409 5406 5403 5399 5396 5393 5389 5386 5382 5379 5375 5371 5367 5362 5358 5352 5347 5341 5335 5329 5322 5315 5308 5300 5294 5289 5285 5280 5276 5270 5266 5262 5259 5256 5253 5248 5243 5236 5230 5226 5223 5221 5218 5216 5215 5214 5213 5211 5210 5210
5491 5490 5485 5479 5475 5473 5475 5474 5470 5467 5466 5466 5464 5461 5457 5456 5455 5453 5451 5448 5444 5442 5440 5437 5435 5432 5429 5426 5424 5422 5419 5416 5413 5411 5409 5406 5403 5400 5397 5394 5390 5387 5384 5381 5377 5373 5370 5366 5361 5356 5351 5346 5340 5334 5329 5323 5316 5309 5302 5294 5288 5283 5279 5275 5272 5267 5263 5259 5256 5253 5250 5246 5241 5235 5229 5225 5222 5220 5217 5215 5214 5213 5212 5210 5209 5208